Sioux Falls, SD

5:59 AM CST on February 20, 2017 (GMT -0600)
Foss

Weather History for KFSD - October, 2011

Change the Weather History Date:

Friday, October 28, 2011

  Actual Average Record
Temperature  
Mean Temperature 41 °F 43 °F  
Max Temperature 57 °F 54 °F 79 °F (1937)
Min Temperature 25 °F 32 °F 2 °F (1925)
Degree Days  
Heating Degree Days 24 22  
Month to date heating degree days 321 466  
Since 1 July heating degree days 520 670  
Cooling Degree Days 0 0  
Month to date cooling degree days 37 0  
Year to date cooling degree days 807 685  
Moisture  
Dew Point 22 °F    
Average Humidity 51    
Maximum Humidity 82    
Minimum Humidity 22    
Precipitation  
Precipitation 0.00 in 0.05 in 1.19 in (1961)
Month to date precipitation 0.63 2.02  
Year to date precipitation 23.62 24.18  
Snow  
Snow 0.00 in 0.10 in 4.50 in (1925)
Month to date snowfall 0.0 1.0  
Since 1 July snowfall 0.0 1.0  
Since 1 September snowfall 0.0 1.0  
Snow Depth 0.00 in    
Sea Level Pressure  
Sea Level Pressure 30.13 in    
Wind  
Wind Speed 9 mph (WNW)    
Max Wind Speed 26 mph    
Max Gust Speed 32 mph    
Visibility 10 miles    
Events      
T = Trace of Precipitation, MM = Missing Value Source: NWS Daily Summary

Daily Weather History Graph

Daily Weather History Graph

Search for Another Location

Airport or City:

Trip Planner

Search our weather history database for the weather conditions in past years. The results will help you decide how hot, cold, wet, or windy it might be!

Date:

Astronomy

Oct. 28, 2011 Rise Set
Actual Time 7:57 AM CDT 6:23 PM CDT
Civil Twilight 7:27 AM CDT 6:53 PM CDT
Nautical Twilight 6:53 AM CDT 7:26 PM CDT
Astronomical Twilight 6:20 AM CDT 8:00 PM CDT
Moon 10:19 AM CDT (10/28) 7:42 PM CDT (10/28)
Length of Visible Light 11h 25m
Length of Day
10h 26m
Waxing Crescent, 5% of the Moon is Illuminated
Oct 28
Waxing Crescent
Nov 2
First Quarter
Nov 10
Full
Nov 18
Last Quarter
Nov 25
New

Hourly Weather History & Observations

Time (CDT) Temp. Windchill Dew Point Humidity Pressure Visibility Wind Dir Wind Speed Gust Speed Precip Events Conditions
12:56 AM 39.9 °F 34.5 °F 23.0 °F 51% 30.07 in 10.0 mi SSW 8.1 mph - N/A   Mostly Cloudy
1:56 AM 37.9 °F - 21.9 °F 53% 30.06 in 10.0 mi Calm Calm - N/A   Partly Cloudy
2:56 AM 34.0 °F - 21.9 °F 61% 30.08 in 10.0 mi Calm Calm - N/A   Clear
3:56 AM 35.6 °F 29.2 °F 23.0 °F 60% 30.04 in 10.0 mi West 8.1 mph - N/A   Mostly Cloudy
4:56 AM 35.1 °F 26.4 °F 25.0 °F 67% 30.08 in 10.0 mi WNW 12.7 mph 19.6 mph N/A   Partly Cloudy
5:56 AM 35.1 °F 27.9 °F 28.0 °F 76% 30.11 in 10.0 mi NW 9.2 mph - N/A   Clear
6:56 AM 34.0 °F 26.6 °F 28.0 °F 79% 30.13 in 10.0 mi NW 9.2 mph - N/A   Clear
7:56 AM 33.1 °F 24.9 °F 28.0 °F 82% 30.15 in 10.0 mi NW 10.4 mph - N/A   Partly Cloudy
8:56 AM 35.6 °F 28.0 °F 26.6 °F 70% 30.13 in 10.0 mi WNW 10.4 mph - N/A   Clear
9:56 AM 41.0 °F 33.9 °F 28.0 °F 60% 30.19 in 10.0 mi WNW 12.7 mph - N/A   Clear
10:56 AM 46.9 °F - 27.0 °F 46% 30.19 in 10.0 mi WNW 8.1 mph - N/A   Clear
11:56 AM 50.0 °F - 26.1 °F 39% 30.19 in 10.0 mi WNW 12.7 mph - N/A   Clear
12:56 PM 53.1 °F - 21.9 °F 30% 30.17 in 10.0 mi West 16.1 mph 23.0 mph N/A   Clear
1:56 PM 54.0 °F - 21.9 °F 29% 30.15 in 10.0 mi NW 19.6 mph 27.6 mph N/A   Partly Cloudy
2:56 PM 57.0 °F - 23.0 °F 27% 30.12 in 10.0 mi WNW 19.6 mph 27.6 mph N/A   Scattered Clouds
3:56 PM 55.0 °F - 19.0 °F 24% 30.12 in 10.0 mi WNW 20.7 mph 31.1 mph N/A   Scattered Clouds
4:56 PM 54.0 °F - 16.0 °F 22% 30.12 in 10.0 mi NW 17.3 mph - N/A   Partly Cloudy
5:56 PM 50.0 °F - 17.1 °F 27% 30.13 in 10.0 mi NNW 13.8 mph 20.7 mph N/A   Partly Cloudy
6:56 PM 44.1 °F 40.1 °F 17.1 °F 34% 30.16 in 10.0 mi NW 6.9 mph - N/A   Partly Cloudy
7:56 PM 39.0 °F 34.8 °F 19.0 °F 45% 30.17 in 10.0 mi West 5.8 mph - N/A   Clear
8:56 PM 37.0 °F 33.3 °F 19.9 °F 50% 30.16 in 10.0 mi West 4.6 mph - N/A   Clear
9:56 PM 33.1 °F 27.7 °F 19.0 °F 56% 30.15 in 10.0 mi West 5.8 mph - N/A   Clear
10:56 PM 30.9 °F - 19.0 °F 61% 30.15 in 10.0 mi Calm Calm - N/A   Clear
11:56 PM 28.0 °F - 19.0 °F 69% 30.14 in 10.0 mi Calm Calm - N/A   Clear